sat.trackr.live / text

‹ back to catalog

STARLINK-5552

NORAD 56339 · 2023-058Y

PAYLOAD ACTIVE UNKNOWN

§ Identity

Operator
Country
US
Launch date
2023-04-27
Launch site
AFWTR
Launch vehicle
Mass (kg)
RCS (m²)

Purposes: comms

External: N2YO · Heavens-Above · Gunter

§ Orbital elements

Epoch: 2026-09-20T22:00:03.000096Z

Period
95.09 min
Inclination
97.2850°
Eccentricity
0.0001720
Mean motion
15.14412926 rev/d
Perigee alt
521.6 km
Apogee alt
523.9 km
Semi-major
6,900.9 km
B*
3.3878e-2
RAAN
257.8524°
Arg perigee
84.0057°
Mean anomaly
176.8018°
Rev number
579

§ Raw data

STARLINK-55521 56339U 23058Y   26263.91670139  .00664542  00000+0  33878-1 0  99952 56339  97.2850 257.8524 0001720  84.0057 176.8018 15.14412926  5793

JSON: /api/v1/satellites/56339 · /tle

For live sub-satellite position, see the globe view (requires WebGL).

§ Visibility from observer

Set your observer location to see the next 7 days of passes ≥ 10°. The values pass through the URL so the page stays shareable.

No JS? Fill the form by hand. The geolocation button needs JavaScript.